Regional Weather Roundup
Issued by NWS Newport/Morehead, NC

Current Version | Previous Version | Text Only | Print | Product List | Glossary On
Versions: 1 2 3 4 5 6 7 8 9 10 11 12 13 14 15 16 17 18 19 20 21 22 23 24 25 26 27 28 29 30 31 32 33 34 35 36 37 38 39 40 41 42 43 44 45 46 47 48 49 50
000
ASUS42 KMHX 192322
RWRMHX
WEATHER ROUNDUP FOR EASTERN NORTH CAROLINA
NATIONAL WEATHER SERVICE NEWPORT/MOREHEAD CITY NC
700 PM EDT SUN OCT 19 2014

NOTE: "FAIR" INDICATES FEW OR NO CLOUDS BELOW 12,000 FEET
WITH NO SIGNIFICANT WEATHER AND/OR OBSTRUCTIONS TO VISIBILITY

NCZ015>017-031-032-045>047-102-103-200000-
NORTH COAST

CITY           SKY/WX    TMP DP  RH WIND       PRES   REMARKS
EDENTON        CLEAR     52  45  77 CALM      30.09R
ELIZABETH CITY CLEAR     53  37  54 W5        30.08R
KITTY HAWK     CLEAR     57  36  46 N5        30.07R
MANTEO         CLEAR     58  39  49 N5        30.08R

$$

NCZ045>047-081-094-103-104-200000-
CENTRAL COAST

CITY           SKY/WX    TMP DP  RH WIND       PRES   REMARKS
FRISCO         CLEAR     59  42  53 VRB6      30.07R
SWANQUARTER      N/A     55 N/A N/A N2        30.06R

$$

NCZ095-097-098-100-101-200000-
SOUTHERN COAST

CITY           SKY/WX    TMP DP  RH WIND       PRES   REMARKS
BEAUFORT       CLEAR     57  44  62 N5        30.08R
CEDAR ISLAND     N/A     63 N/A N/A W9G16     30.12R
JACKSONVILLE   CLEAR     59  44  57 N6        30.08R
PINEY ISLAND   CLEAR     63  42  46 NW8       30.08R
WILMINGTON     CLEAR     59  47  64 N5        30.08R


$$

NCZ011>013-027>030-043-044-078>080-089-090>093-098-200000-
COASTAL PLAIN

CITY           SKY/WX    TMP DP  RH WIND       PRES   REMARKS
AHOSKIE        CLEAR     49  44  85 CALM      30.10R
CLINTON        CLEAR     55  49  79 CALM      30.10R
ELIZABETHTOWN  CLEAR     56  48  73 CALM      30.09R
GOLDSBORO      CLEAR     57  50  76 CALM      30.08R HAZE
GREENVILLE     CLEAR     55  45  67 CALM      30.11R
HAVELOCK       PTCLDY    60  44  55 N5        30.09R
KENANSVILLE    CLEAR     52  46  82 CALM      30.11R
KINSTON        CLEAR     54  48  82 CALM      30.10R
NEW BERN       CLEAR     56  46  69 S3        30.09R
RICHLANDS      CLEAR     52  46  82 CALM      30.10R
ROCKY MOUNT    CLEAR     52  46  80 CALM      30.09R
WASHINGTON     CLEAR     53  45  74 CALM      30.10R
WHITEVILLE     CLEAR     56  48  75 CALM      30.09R

$$

AMZ130-135-150-152-154-156-158-170-250-252-270-ANZ085-086-088-633-658-670-200000-
MARINE OBSERVATIONS

STATION/POSITION TIME  TEMP    WIND        PRES    WAVE   SWELL
                       AIR SEA DIR/SP/G            HT/PER HT/PER
                 (UTC) (F)     (DEG/KT/KT) (MB)    (FT/S) (FT/S)
CHESAPEAKE LIGHT 2300   60     340/ 17/ 19 1018.5
64 E VA BEACH    2300   59 69  340/ 19/ 23 1016.8    6/ 7   2/14
DUCK             2300   60 69  330/ 14/ 16 1017.5
2 E DUCK         2300                        N/A     5/ 7   2/11
10 NE DUCK       2300      71                N/A     5/ 7   2/15
OREGON INLET     2300   57 69  340/  5/  8 1018.1
13E OREGON INLT  2300      74                N/A     6/ 7   2/14
HATTERAS CG      2300   63 68  340/ 14/ 17 1018.8
DIAMOND BUOY     2300   62     330/ 14/ 19 1018.0    4/12   3/12
17 S OCRACOKE    2200          VRB 12/ 14  1017.6
CAPE LOOKOUT     2300   63     350/ 11/ 12 1018.6
BEAUFORT LAB     2300   62 70   10/  7/  9 1018.1
30 SE NEW RIVER  2300   66 76  340/ 12/ 16 1018.1    2/11   2/11
5 SE WRIGHTSVLE  2300   62 74  350/ 10/ 12   N/A
225 S CAPE HAT   2155   70 80  350/ 16/ 17 1017.2    6/ 7   3/ 9
41 SE CHARLESTON 2300   67 79  360/  8/ 12 1018.3    4/ 6   3/ 6

$$


USA.gov is the U.S. government's official web portal to all federal, state and local government web resources and services.